[[{"header":{"parameterUnit":"m.s-1","parameterCategory":1,"la1":30.2991,"la2":30.254,"lo1":-89.0895,"lo2":-89.0444,"dy":0.0017,"dx":0.0017,"nx":28,"ny":28,"refTime":"2024-08-09T21:00:00:Z","depth":0,"parameterNumber":2,"parameterNumberName":"U-component_of_WINDS"},"data":[0,0,0,0,0,0,0,0,0,0,0,0,0,0,0,0,0,0,0,0,0,0,0,0,0,0,0,0,0,0,0,0,0,0,0,0,0,0,0,0,0,0,0,0,0,0,0,0,0,0,0,0,0,0,0,0,0,0,-0.7499,-0.7499,0,-0.7541,-0.7541,-0.7542,-0.7486,-0.7484,-0.7482,-0.748,-0.7526,-0.7529,-0.7532,0,0,0,0,0,0,0,0,0,0,0,0,0,-0.7372,-0.7375,-0.7499,-0.7499,-0.75,-0.7541,-0.7541,-0.7542,-0.7486,-0.7484,-0.7481,-0.7479,-0.7525,-0.7528,-0.7532,0,0,0,0,0,0,0,0,0,0,0,0,0,-0.7422,-0.7376,-0.7499,-0.7477,-0.7475,-0.754,-0.7541,-0.7542,-0.7487,-0.7484,-0.7481,-0.7478,-0.7524,-0.7528,-0.7533,-0.7622,0,0,-0.7547,-0.7549,0,0,0,0,0,0,0,0,-0.7419,-0.7427,-0.748,-0.7479,-0.7477,-0.7505,-0.7513,-0.7569,-0.7488,-0.7483,-0.748,-0.7477,-0.7521,-0.7526,-0.7541,-0.7624,-0.7626,-0.7547,-0.755,-0.7552,-0.7553,0,0,0,0,0,0,0,-0.7416,-0.7425,-0.7515,-0.748,-0.7479,-0.7466,-0.7469,-0.7524,-0.7519,-0.7483,-0.7479,-0.7484,-0.752,-0.7536,-0.7541,-0.7626,-0.7547,-0.7551,-0.7554,-0.7556,-0.7785,-0.7788,0,0,0,0,0,0,-0.7415,-0.7422,-0.7514,-0.7517,-0.744,-0.747,-0.7475,-0.7499,-0.7518,-0.7518,-0.7487,-0.7482,-0.753,-0.7536,-0.7543,-0.7649,-0.7552,-0.7556,-0.7559,-0.7782,-0.7786,-0.7789,0,0,0,0,0,0,-0.7412,-0.7424,-0.7512,-0.7468,-0.7479,-0.7476,-0.7504,-0.7502,-0.7518,-0.7521,-0.752,-0.7504,-0.7528,-0.7536,-0.7602,-0.765,-0.7558,-0.7563,-0.7778,-0.7783,-0.7788,-0.7863,0,0,0,0,0,0,-0.7409,-0.7423,-0.7457,-0.747,-0.7481,-0.7571,-0.7507,-0.7505,-0.7525,-0.7519,-0.7537,-0.7537,-0.7526,-0.7596,-0.7607,-0.7655,-0.7566,-0.7774,-0.778,-0.7786,-0.7856,-0.787,-0.7881,0,0,0,0,0,-0.7405,-0.7477,-0.7459,-0.747,-0.7523,-0.7574,-0.7581,-0.7566,-0.7529,-0.7564,-0.7565,-0.7537,-0.7642,-0.7603,-0.7615,-0.7665,-0.7771,-0.7778,-0.7786,-0.785,-0.7867,-0.7881,0,0,0,0,0,0,-0.7471,-0.7478,-0.7458,-0.7536,-0.7555,-0.7564,-0.7607,-0.7584,-0.7614,-0.7607,-0.7587,-0.7592,-0.7663,-0.767,-0.7626,-0.7752,-0.7701,-0.7711,-0.7746,-0.7761,-0.7774,-0.7772,-0.757,0,0,0,0,0,-0.7494,-0.7534,-0.7538,-0.7607,-0.7617,-0.7611,-0.7632,-0.7619,-0.7638,-0.7646,-0.7652,-0.7673,-0.771,-0.7736,-0.777,-0.7855,-0.7859,-0.7896,-0.7908,-0.7919,-0.7929,-0.7975,-0.7992,-0.7814,-0.7814,-0.7814,0,0,-0.7543,-0.7552,-0.7579,-0.762,-0.7633,-0.7676,-0.7618,-0.7665,-0.7697,-0.7653,-0.7716,-0.7722,-0.7743,-0.7819,-0.7853,-0.7827,-0.7978,-0.7928,-0.7936,-0.7941,-0.7984,-0.8001,-0.8016,-0.7819,-0.7818,-0.7817,0,0,-0.7656,-0.7666,-0.7724,-0.7738,-0.7757,-0.7752,-0.7766,-0.7779,-0.7781,-0.7844,-0.7812,-0.7849,-0.7914,-0.7931,-0.7948,-0.8064,-0.8039,-0.8076,-0.8143,-0.8189,-0.8203,-0.8215,-0.8258,-0.8274,-0.8085,-0.8085,-0.8086,0,-0.7715,-0.7778,-0.7758,-0.7808,-0.7827,-0.7787,-0.7847,-0.7861,-0.7892,-0.7907,-0.7877,-0.7957,-0.7969,-0.8049,-0.8077,-0.8091,-0.8108,-0.8075,-0.8202,-0.8214,-0.8225,-0.8267,-0.8283,-0.809,-0.8089,-0.8089,-0.8089,0,-0.785,-0.7894,-0.7939,-0.7969,-0.7993,-0.8048,-0.8036,-0.8063,-0.8047,-0.8045,-0.811,-0.8121,-0.8158,-0.8175,-0.816,-0.8253,-0.8237,-0.8205,-0.8153,-0.8247,-0.8286,-0.8301,-0.8096,-0.8095,-0.8093,-0.8092,0,0,-0.8009,-0.8025,-0.8042,-0.8055,-0.8073,-0.8107,-0.8159,-0.8194,-0.8218,-0.824,-0.8284,-0.8339,-0.831,-0.8329,-0.8315,-0.8354,-0.8448,-0.8317,-0.8318,-0.8343,-0.8553,-0.8579,-0.8597,-0.843,-0.8433,-0.8435,-0.8552,0,-0.8122,-0.8213,-0.8196,-0.8285,-0.8326,-0.8287,-0.8333,-0.8349,-0.8348,-0.8383,-0.8382,-0.8422,-0.8379,-0.839,-0.8427,-0.8429,-0.849,-0.842,-0.8473,-0.8475,-0.8472,-0.8617,-0.8645,-0.8755,-0.8566,-0.8569,-0.8571,0,-0.8268,-0.8294,-0.8387,-0.8398,-0.8415,-0.8457,-0.8487,-0.852,-0.8538,-0.8534,-0.8555,-0.8533,-0.8586,-0.8531,-0.8604,-0.8557,-0.8577,-0.8581,-0.8584,-0.8591,-0.8531,-0.863,-0.8789,-0.8806,-0.8594,-0.8592,-0.859,0,-0.8377,-0.8435,-0.8498,-0.851,-0.8524,-0.8555,-0.8562,-0.8576,-0.8598,-0.8625,-0.8639,-0.8671,-0.869,-0.8715,-0.8703,-0.8664,-0.8779,-0.8723,-0.8779,-0.878,-0.8808,-0.8807,-0.8975,-0.8817,-0.8816,-0.8816,-0.8816,0,-0.8507,-0.8566,-0.8547,-0.8587,-0.8652,-0.863,-0.8695,-0.8698,-0.8711,-0.875,-0.8718,-0.8756,-0.8736,-0.8773,-0.8763,-0.8826,-0.8834,-0.8834,-0.8831,-0.8838,-0.8839,-0.8854,-0.8847,-0.882,-0.8819,-0.8819,-0.8818,0,-0.8641,-0.8631,-0.8697,-0.8704,-0.8708,-0.8755,-0.8762,-0.8799,-0.8794,-0.8844,-0.8855,-0.8849,-0.889,-0.8879,-0.8924,-0.8918,-0.8998,-0.8984,-0.8992,-0.899,-0.9048,-0.9043,-0.9233,-0.9258,-0.9081,-0.9083,-0.9084,0,-0.8727,-0.8771,-0.8783,-0.8806,-0.8816,-0.8855,-0.8876,-0.8857,-0.8881,-0.8903,-0.8938,-0.8976,-0.9006,-0.9073,-0.9073,-0.9107,-0.9096,-0.916,-0.9101,-0.9107,-0.91,-0.9098,-0.9103,-0.9173,-0.9175,-0.9176,-0.9178,0,-0.8881,-0.8873,-0.8905,-0.8936,-0.8963,-0.8986,-0.9007,-0.9028,-0.901,-0.9038,-0.908,-0.9103,-0.9148,-0.9187,-0.9217,-0.9225,-0.92,-0.9196,-0.9211,-0.922,-0.9224,-0.9225,-0.9027,-0.9192,-0.9191,-0.919,-0.9189,-0.9188,-0.8995,-0.9032,-0.9046,-0.9083,-0.9096,-0.9116,-0.9151,-0.915,-0.9184,-0.9219,-0.9205,-0.9253,-0.9268,-0.9307,-0.9319,-0.9356,-0.9332,-0.9353,-0.9359,-0.9366,-0.9374,-0.9215,-0.9361,-0.9361,-0.936,-0.936,-0.936,0,-0.9149,-0.9155,-0.9189,-0.9218,-0.9248,-0.9218,-0.9239,-0.9266,-0.9308,-0.9324,-0.9353,-0.9401,-0.9438,-0.944,-0.9474,-0.9504,-0.9493,-0.9514,-0.9513,-0.9516,-0.9393,-0.9377,-0.9522,-0.9522,-0.9522,-0.9522,-0.9522,-0.9522,-0.9232,-0.9295,-0.9289,-0.9358,-0.9363,-0.9409,-0.9424,-0.9442,-0.9455,-0.9509,-0.9539,-0.9539,-0.955,-0.9585,-0.9618,-0.9617,-0.9632,-0.9659,-0.9654,-0.954,-0.9524,-0.9509,-0.9494,-0.9661,-0.9662,-0.9774,-0.9775,-0.9776]},{"header":{"parameterUnit":"m.s-1","parameterCategory":1,"la1":30.2991,"la2":30.254,"lo1":-89.0895,"lo2":-89.0444,"dy":0.0017,"dx":0.0017,"nx":28,"ny":28,"refTime":"2024-08-09T21:00:00:Z","depth":0,"parameterNumber":3,"parameterNumberName":"V-component_of_WINDS"},"data":[0,0,0,0,0,0,0,0,0,0,0,0,0,0,0,0,0,0,0,0,0,0,0,0,0,0,0,0,0,0,0,0,0,0,0,0,0,0,0,0,0,0,0,0,0,0,0,0,0,0,0,0,0,0,0,0,0,0,-4.0496,-4.0497,0,-4.0584,-4.0585,-4.0586,-4.0535,-4.0533,-4.053,-4.0528,-4.0615,-4.0619,-4.0624,0,0,0,0,0,0,0,0,0,0,0,0,0,-4.0281,-4.0285,-4.0496,-4.0497,-4.0499,-4.0584,-4.0585,-4.0587,-4.0536,-4.0533,-4.053,-4.0527,-4.0613,-4.0619,-4.0624,0,0,0,0,0,0,0,0,0,0,0,0,0,-4.0372,-4.0287,-4.0496,-4.0484,-4.0483,-4.0584,-4.0585,-4.0587,-4.0536,-4.0533,-4.0529,-4.0525,-4.0611,-4.0618,-4.0625,-4.0742,0,0,-4.0646,-4.0649,0,0,0,0,0,0,0,0,-4.0367,-4.038,-4.0484,-4.0485,-4.0485,-4.0545,-4.0541,-4.0639,-4.0537,-4.0516,-4.0528,-4.0524,-4.0594,-4.0602,-4.0627,-4.0746,-4.075,-4.0647,-4.0651,-4.0654,-4.0656,0,0,0,0,0,0,0,-4.0361,-4.0376,-4.0531,-4.0486,-4.0486,-4.0472,-4.0481,-4.0559,-4.0575,-4.0518,-4.0514,-4.0525,-4.0594,-4.062,-4.0629,-4.0751,-4.0646,-4.0653,-4.0657,-4.066,-4.097,-4.0974,0,0,0,0,0,0,-4.0356,-4.0371,-4.0528,-4.0534,-4.0416,-4.0479,-4.0489,-4.0529,-4.0574,-4.0577,-4.0529,-4.0523,-4.061,-4.0621,-4.0631,-4.0771,-4.0654,-4.066,-4.0664,-4.0966,-4.0971,-4.0975,0,0,0,0,0,0,-4.0351,-4.037,-4.0525,-4.0452,-4.047,-4.0487,-4.0532,-4.0533,-4.056,-4.0582,-4.0584,-4.0553,-4.0608,-4.0622,-4.0715,-4.0774,-4.0663,-4.067,-4.0961,-4.0967,-4.0973,-4.1052,0,0,0,0,0,0,-4.0346,-4.0369,-4.0415,-4.0453,-4.0474,-4.0608,-4.0536,-4.0537,-4.0572,-4.0566,-4.0606,-4.0609,-4.0606,-4.0705,-4.0722,-4.0781,-4.0675,-4.0956,-4.0964,-4.0971,-4.1044,-4.106,-4.1074,0,0,0,0,0,-4.0338,-4.0433,-4.0417,-4.0436,-4.0532,-4.0612,-4.0624,-4.0619,-4.0577,-4.0623,-4.0637,-4.0608,-4.0764,-4.0715,-4.0733,-4.0796,-4.0952,-4.0961,-4.097,-4.1038,-4.1057,-4.1073,0,0,0,0,0,0,-4.04,-4.0437,-4.0421,-4.0531,-4.0569,-4.0603,-4.066,-4.064,-4.0689,-4.0681,-4.0672,-4.0682,-4.0779,-4.0796,-4.0741,-4.0911,-4.0851,-4.0865,-4.0896,-4.0915,-4.0929,-4.0923,-4.0681,0,0,0,0,0,-4.0426,-4.0489,-4.0518,-4.0613,-4.0632,-4.0643,-4.0678,-4.0671,-4.0709,-4.0725,-4.0746,-4.0783,-4.084,-4.0878,-4.0933,-4.1046,-4.1054,-4.1098,-4.1113,-4.1125,-4.1136,-4.1198,-4.1218,-4.1005,-4.1005,-4.1005,0,0,-4.0481,-4.051,-4.055,-4.0626,-4.0654,-4.0718,-4.0657,-4.0727,-4.0775,-4.0735,-4.0825,-4.0842,-4.0882,-4.0986,-4.1033,-4.1004,-4.1197,-4.1137,-4.1146,-4.1151,-4.1209,-4.1229,-4.1247,-4.1011,-4.101,-4.1009,0,0,-4.0615,-4.0643,-4.0725,-4.0755,-4.0799,-4.0805,-4.0825,-4.0863,-4.0873,-4.0963,-4.0934,-4.099,-4.1089,-4.1119,-4.1148,-4.1293,-4.1268,-4.1311,-4.1387,-4.1447,-4.1464,-4.1479,-4.153,-4.1549,-4.1322,-4.1322,-4.1322,0,-4.0678,-4.0775,-4.0769,-4.0842,-4.0876,-4.0844,-4.0926,-4.0955,-4.1014,-4.1038,-4.1005,-4.1129,-4.1154,-4.1265,-4.13,-4.1324,-4.1346,-4.1306,-4.1462,-4.1477,-4.1491,-4.154,-4.1559,-4.1327,-4.1327,-4.1326,-4.1326,0,-4.085,-4.0917,-4.0978,-4.1037,-4.1077,-4.1155,-4.116,-4.1201,-4.1191,-4.1201,-4.1293,-4.1322,-4.1381,-4.1407,-4.1397,-4.1516,-4.1497,-4.1463,-4.1403,-4.1516,-4.1562,-4.1581,-4.1334,-4.1332,-4.1331,-4.133,0,0,-4.1025,-4.108,-4.1102,-4.1129,-4.1175,-4.1227,-4.1302,-4.1361,-4.1397,-4.1439,-4.1501,-4.1586,-4.1555,-4.1588,-4.1581,-4.1633,-4.1746,-4.1593,-4.1594,-4.162,-4.1879,-4.1904,-4.1926,-4.173,-4.1733,-4.1736,-4.1875,0,-4.1161,-4.1294,-4.1291,-4.1415,-4.1476,-4.1447,-4.1512,-4.1547,-4.1558,-4.1611,-4.1623,-4.1683,-4.1638,-4.1657,-4.1708,-4.1722,-4.1798,-4.1712,-4.1787,-4.179,-4.1778,-4.195,-4.1977,-4.2107,-4.1893,-4.1896,-4.1899,0,-4.1338,-4.1387,-4.1517,-4.1554,-4.158,-4.1639,-4.1693,-4.1745,-4.1784,-4.1788,-4.1824,-4.1809,-4.1884,-4.1822,-4.1926,-4.1867,-4.1897,-4.1909,-4.1914,-4.1921,-4.1851,-4.1962,-4.2148,-4.2168,-4.1927,-4.1925,-4.1923,0,-4.1453,-4.1551,-4.1642,-4.1665,-4.1711,-4.1753,-4.1774,-4.1809,-4.1845,-4.1891,-4.1914,-4.1969,-4.1999,-4.2041,-4.204,-4.1995,-4.2145,-4.2083,-4.215,-4.215,-4.2183,-4.2181,-4.2377,-4.2202,-4.2202,-4.2202,-4.2201,0,-4.1606,-4.1687,-4.1694,-4.175,-4.1839,-4.1834,-4.1922,-4.1938,-4.197,-4.2027,-4.2004,-4.2058,-4.2054,-4.2109,-4.2109,-4.2194,-4.2208,-4.2212,-4.2212,-4.2215,-4.2214,-4.2235,-4.2226,-4.2207,-4.2206,-4.2205,-4.2204,0,-4.1749,-4.1758,-4.1854,-4.189,-4.19,-4.1965,-4.1994,-4.2047,-4.2055,-4.2128,-4.2145,-4.2159,-4.2222,-4.2226,-4.2298,-4.2298,-4.2402,-4.239,-4.2389,-4.2387,-4.2454,-4.2448,-4.2671,-4.2699,-4.2506,-4.2508,-4.2509,0,-4.1847,-4.1908,-4.195,-4.1988,-4.2012,-4.2072,-4.2109,-4.2106,-4.2145,-4.2194,-4.224,-4.2301,-4.2349,-4.2451,-4.2467,-4.2522,-4.2512,-4.2586,-4.252,-4.2521,-4.2513,-4.2509,-4.2515,-4.2599,-4.2601,-4.2603,-4.2604,0,-4.2018,-4.2019,-4.2074,-4.213,-4.2175,-4.2218,-4.2259,-4.2291,-4.2292,-4.2337,-4.2402,-4.244,-4.2514,-4.2575,-4.2629,-4.2648,-4.2627,-4.2625,-4.2644,-4.2648,-4.2644,-4.2647,-4.2424,-4.262,-4.2618,-4.2617,-4.2617,-4.2616,-4.2141,-4.2195,-4.2233,-4.2294,-4.2325,-4.2363,-4.2414,-4.243,-4.2484,-4.2546,-4.254,-4.2612,-4.2648,-4.2718,-4.2742,-4.2798,-4.2772,-4.2799,-4.2806,-4.2812,-4.2819,-4.2636,-4.2807,-4.2807,-4.2806,-4.2806,-4.2806,0,-4.2312,-4.2335,-4.2392,-4.245,-4.2498,-4.2474,-4.2518,-4.256,-4.2623,-4.266,-4.2708,-4.2782,-4.2841,-4.2862,-4.2918,-4.2958,-4.295,-4.2973,-4.297,-4.2975,-4.2839,-4.2817,-4.2979,-4.2979,-4.2979,-4.2979,-4.2979,-4.2979,-4.2406,-4.2495,-4.2501,-4.2604,-4.2626,-4.2697,-4.2724,-4.2759,-4.2788,-4.2873,-4.2922,-4.2935,-4.2965,-4.3023,-4.3076,-4.308,-4.3102,-4.313,-4.313,-4.3002,-4.2985,-4.2968,-4.2948,-4.3135,-4.3135,-4.3262,-4.3263,-4.3264]}]]